Date String (YYYY-MM-DD hh:mm:ss) UTC,Instrument flags,absolute air pressure of the measurement (hPa),sample flow rate (lpm),inlet stack bypass flow (lpm),air temperature of the measurement (°C),ambient temperature measured by the external sensor (°C),aerosol sample conditioner tube jacket temperature (°C),OPC LED temperature (°C),internal box temperature (°C),relative humidity of the measurement (%),span deviation,mass concentration of particles derived from Lorenz-Mie calculation of OPC scattering (μg/m³),mass concentration of particles derived from Lorenz-Mie calculation of OPC scattering (μg/m³),mass concentration of particles derived from Lorenz-Mie calculation of OPC scattering (μg/m³)
DateTimeUTC,F1_M11,P_M11,Q1_M11,Q2_M11,T1_M11,T2_M11,T3_M11,T4_M11,T5_M11,U1_M11,ZSPAN_M11,X0_M11,X2_M11,X1_M11
2023-09-30 11:00:00,SystemResetWarning,0829.0,4.99,000.00,028.9,027.4,000.0,037.3,030.5,17.5,0000.0,0023.18,0006.98,0004.97
2023-09-30 11:01:00,SystemResetWarning,0829.0,4.99,000.00,028.9,027.4,000.0,037.3,030.5,17.2,0001.7,0023.69,0007.04,0004.99
2023-09-30 11:02:00,SystemResetWarning,0829.0,5.00,000.00,028.9,027.4,000.0,037.3,030.5,16.9,0002.0,0024.01,0007.07,0005.01
2023-09-30 11:03:00,SystemResetWarning,0828.9,5.00,000.00,028.9,027.4,000.0,037.3,030.5,16.2,0001.9,0024.07,0007.10,0005.01
2023-09-30 11:04:00,SystemResetWarning,0828.8,5.01,000.00,028.9,027.4,000.0,037.3,030.5,15.3,0001.5,0024.63,0007.09,0005.02
2023-09-30 11:05:00,SystemResetWarning,0828.8,5.00,000.00,028.9,027.4,000.0,037.3,030.5,14.9,0001.4,0024.00,0007.08,0005.02
2023-09-30 11:06:00,SystemResetWarning,0828.8,5.00,000.00,028.9,027.4,000.0,037.3,030.5,14.4,0000.0,0022.78,0007.05,0005.03
2023-09-30 11:07:00,SystemResetWarning,0828.8,5.00,000.00,028.9,027.4,000.0,037.3,030.5,14.2,0000.3,0021.48,0007.00,0005.02
2023-09-30 11:08:00,SystemResetWarning,0828.7,4.99,000.00,028.9,027.4,000.0,037.3,030.5,14.1,0000.0,0019.60,0007.02,0005.02
2023-09-30 11:09:00,SystemResetWarning,0828.8,5.00,000.00,028.9,027.4,000.0,037.3,030.5,13.8,0000.0,0018.55,0006.99,0005.01
2023-09-30 11:10:00,SystemResetWarning,0828.7,5.00,000.00,028.9,027.4,000.0,037.3,030.5,13.9,0000.0,0018.54,0006.91,0005.00
2023-09-30 11:11:00,SystemResetWarning,0828.7,5.00,000.00,028.9,027.4,000.0,037.3,030.5,14.1,0000.0,0017.56,0006.86,0004.99
2023-09-30 11:12:00,SystemResetWarning,0828.7,5.00,000.00,028.9,027.4,000.0,037.3,030.5,14.3,0000.0,0017.02,0006.78,0004.97
2023-09-30 11:13:00,SystemResetWarning,0828.7,5.00,000.00,028.9,027.4,000.0,037.3,030.5,14.3,0000.0,0016.40,0006.75,0004.95
2023-09-30 11:14:00,SystemResetWarning,0828.7,5.00,000.00,028.9,027.4,000.0,037.3,030.5,14.3,0000.0,0016.75,0006.68,0004.94
2023-09-30 11:15:00,SystemResetWarning,0828.7,5.00,000.00,028.9,027.4,000.0,037.4,030.5,14.5,0000.0,0016.58,0006.67,0004.93
2023-09-30 11:16:00,SystemResetWarning,0828.7,5.00,000.00,028.9,027.4,000.0,037.3,030.5,14.5,0000.0,0016.47,0006.65,0004.92
2023-09-30 11:17:00,SystemResetWarning,0828.7,5.00,000.00,028.9,027.4,000.0,037.3,030.5,14.5,0000.0,0016.75,0006.63,0004.90
2023-09-30 11:18:00,SystemResetWarning,0828.7,5.00,000.00,028.9,027.4,000.0,037.3,030.5,14.5,0000.0,0016.91,0006.63,0004.91
2023-09-30 11:19:00,SystemResetWarning,0828.7,5.01,000.00,028.9,027.4,000.0,037.3,030.5,14.2,0000.0,0017.37,0006.61,0004.90
2023-09-30 11:20:00,SystemResetWarning,0828.7,5.00,000.00,028.9,027.4,000.0,037.3,030.5,14.7,0000.0,0017.43,0006.58,0004.90
2023-09-30 11:21:00,SystemResetWarning,0828.7,4.99,000.00,028.9,027.4,000.0,037.3,030.5,14.9,0000.0,0017.73,0006.62,0004.90
2023-09-30 11:22:00,SystemResetWarning,0828.7,5.00,000.00,028.9,027.4,000.0,037.3,030.5,15.0,0000.0,0018.42,0006.64,0004.90
2023-09-30 11:23:00,SystemResetWarning,0828.7,5.00,000.00,028.9,027.4,000.0,037.4,030.5,15.3,0000.0,0018.62,0006.65,0004.90
2023-09-30 11:24:00,SystemResetWarning,0828.7,5.00,000.00,028.9,027.4,000.0,037.4,030.5,15.4,0000.0,0018.58,0006.62,0004.90
2023-09-30 11:25:00,SystemResetWarning,0828.7,5.00,000.00,028.9,027.4,000.0,037.4,030.5,15.4,0000.0,0019.62,0006.67,0004.90
2023-09-30 11:26:00,SystemResetWarning,0828.8,5.00,000.00,028.9,027.4,000.0,037.4,030.5,15.4,0000.0,0019.47,0006.72,0004.91
2023-09-30 11:27:00,SystemResetWarning,0828.8,5.00,000.00,028.9,027.4,000.0,037.4,030.5,15.5,0000.0,0019.77,0006.70,0004.91
2023-09-30 11:28:00,SystemResetWarning,0828.8,5.00,000.00,028.9,027.4,000.0,037.3,030.5,15.6,0000.0,0019.72,0006.70,0004.91
2023-09-30 11:29:00,SystemResetWarning,0828.8,5.00,000.00,028.9,027.4,000.0,037.3,030.5,15.6,0000.0,0019.84,0006.64,0004.91
2023-09-30 11:30:00,SystemResetWarning,0828.7,5.00,000.00,028.9,027.4,000.0,037.3,030.5,15.5,0000.0,0019.99,0006.59,0004.91
2023-09-30 11:31:00,SystemResetWarning,0828.8,5.00,000.00,028.9,027.4,000.0,037.3,030.5,15.4,0000.0,0020.89,0006.58,0004.91
2023-09-30 11:32:00,SystemResetWarning,0828.8,5.00,000.00,028.9,027.4,000.0,037.3,030.5,15.2,0000.0,0021.10,0006.56,0004.92
2023-09-30 11:33:00,SystemResetWarning,0828.8,5.01,000.00,028.9,027.4,000.0,037.3,030.5,14.9,0000.0,0021.29,0006.58,0004.93
2023-09-30 11:34:00,SystemResetWarning,0828.8,5.00,000.00,028.9,027.4,000.0,037.3,030.5,14.9,0000.0,0021.25,0006.59,0004.94
2023-09-30 11:35:00,SystemResetWarning,0828.8,5.00,000.00,028.9,027.4,000.0,037.3,030.5,14.6,0000.0,0021.13,0006.56,0004.92
2023-09-30 11:36:00,SystemResetWarning,0828.8,5.00,000.00,028.9,027.4,000.0,037.3,030.5,14.5,0000.0,0019.93,0006.52,0004.92
2023-09-30 11:37:00,SystemResetWarning,0828.8,5.00,000.00,028.9,027.4,000.0,037.3,030.5,14.2,0000.0,0019.81,0006.43,0004.90
2023-09-30 11:38:00,SystemResetWarning,0828.8,5.00,000.00,028.9,027.4,000.0,037.3,030.5,14.1,0000.0,0020.09,0006.38,0004.89
2023-09-30 11:39:00,SystemResetWarning,0828.8,5.00,000.00,028.9,027.4,000.0,037.3,030.5,14.1,0000.0,0019.66,0006.32,0004.87
2023-09-30 11:40:00,SystemResetWarning,0828.8,5.00,000.00,028.9,027.4,000.0,037.3,030.5,14.0,0000.0,0019.05,0006.28,0004.85
2023-09-30 11:41:00,SystemResetWarning,0828.8,5.01,000.00,028.9,027.3,000.0,037.3,030.5,14.1,0000.0,0018.75,0006.18,0004.82
2023-09-30 11:42:00,SystemResetWarning,0828.8,5.00,000.00,028.9,027.3,000.0,037.3,030.5,14.1,0000.0,0017.66,0006.10,0004.80
2023-09-30 11:43:00,SystemResetWarning,0828.7,5.00,000.00,028.9,027.4,000.0,037.4,030.5,14.0,0000.0,0016.98,0006.01,0004.76
2023-09-30 11:44:00,SystemResetWarning,0828.7,5.00,000.00,028.9,027.4,000.0,037.3,030.5,14.0,0000.0,0015.64,0005.83,0004.71
2023-09-30 11:45:00,SystemResetWarning,0828.8,5.00,000.00,028.9,027.4,000.0,037.4,030.5,14.0,0000.0,0015.36,0005.72,0004.68
2023-09-30 11:46:00,SystemResetWarning,0828.8,5.00,000.00,028.9,027.4,000.0,037.4,030.5,13.7,0000.0,0015.33,0005.63,0004.67
2023-09-30 11:47:00,SystemResetWarning,0828.7,5.00,000.00,028.9,027.4,000.0,037.4,030.5,13.7,0000.0,0014.98,0005.56,0004.66
2023-09-30 11:48:00,SystemResetWarning,0828.7,5.00,000.00,028.9,027.4,000.0,037.4,030.5,13.9,0000.0,0014.55,0005.45,0004.65
2023-09-30 11:49:00,SystemResetWarning,0828.7,5.00,000.00,028.9,027.4,000.0,037.3,030.5,13.8,0000.0,0014.81,0005.43,0004.63
2023-09-30 11:50:00,SystemResetWarning,0828.7,5.00,000.00,028.9,027.4,000.0,037.3,030.5,14.0,0000.0,0015.18,0005.38,0004.60
2023-09-30 11:51:00,SystemResetWarning,0828.7,4.98,000.00,028.9,027.4,000.0,037.3,030.5,14.3,0000.0,0015.53,0005.33,0004.60
2023-09-30 11:52:00,SystemResetWarning,0828.7,5.00,000.00,028.9,027.4,000.0,037.3,030.5,14.1,0000.3,0015.08,0005.34,0004.58
2023-09-30 11:53:00,SystemResetWarning,0828.7,5.01,000.00,028.9,027.3,000.0,037.3,030.5,14.3,0000.0,0015.34,0005.35,0004.58
2023-09-30 11:54:00,SystemResetWarning,0828.7,5.01,000.00,028.8,027.3,000.0,037.3,030.5,14.4,0000.0,0015.31,0005.38,0004.57
2023-09-30 11:55:00,SystemResetWarning,0828.7,4.99,000.00,028.9,027.3,000.0,037.3,030.5,14.1,0000.0,0015.04,0005.45,0004.58
2023-09-30 11:56:00,SystemResetWarning,0828.7,4.99,000.00,028.8,027.3,000.0,037.3,030.5,13.9,0000.0,0015.06,0005.47,0004.58
2023-09-30 11:57:00,SystemResetWarning,0828.7,5.00,000.00,028.8,027.3,000.0,037.3,030.5,13.8,0000.0,0015.26,0005.49,0004.56
2023-09-30 11:58:00,SystemResetWarning,0828.7,5.01,000.00,028.8,027.3,000.0,037.3,030.5,13.7,0000.0,0015.11,0005.49,0004.55
2023-09-30 11:59:00,SystemResetWarning,0828.7,5.00,000.00,028.8,027.3,000.0,037.3,030.5,13.7,0000.0,0014.94,0005.50,0004.53
